Regional Weather Roundup
Issued by NWS Jackson, KY

Home | Current Version | Previous Version | Text Only | Print | Product List | Glossary Off
Versions: 1 2 3 4 5 6 7 8 9 10 11 12 13 14 15 16 17 18 19 20 21 22 23 24 25 26 27 28 29 30 31 32 33 34 35 36 37 38 39 40 41 42 43 44 45 46 47 48 49 50

000
ASUS43 KJKL 271410
RWRJKL

EAST KENTUCKY HOURLY WEATHER ROUNDUP
NATIONAL WEATHER SERVICE JACKSON KY
900 AM EST SAT DEC 27 2014

NOTE: "FAIR" INDICATES FEW OR NO CLOUDS BELOW 12,000 FEET WITH
NO SIGNIFICANT WEATHER AND/OR OBSTRUCTIONS TO VISIBILITY.

* THESE REPORTS ARE NOT UNDER NWS QUALITY CONTROL AND MAY NOT
  REPORT WEATHER SUCH AS PRECIPITATION AND FOG.

KYZ079-080-083-085-087-088-110-112-115-119-120-271500
...EASTERN KENTUCKY...

CITY           SKY/WX    TMP DP  RH WIND       PRES   REMARKS
JACKSON        PTSUNNY   46  25  43 CALM      30.25R
LONDON         MOSUNNY   42  33  70 CALM      30.26R
SOMERSET*      CLOUDY    45  36  70 CALM      30.27R
MONTICELLO*    PTSUNNY   49  37  63 CALM      30.27S
MIDDLESBORO*   MOSUNNY   43  37  79 CALM      30.30R
HARLAN APT*    PTSUNNY   43  34  70 CALM      30.27S
HAZARD APT*    MOSUNNY   41  36  81 CALM      30.25S
BLACK MTN*       N/A     46  12  25 SW5         N/A
PIKEVILLE APT* CLOUDY    45  28  53 S3        30.26R
BIG SANDY*     PTSUNNY   44  34  68 CALM      30.27R
MOREHEAD APT*  CLOUDY    46  32  57 SE7       30.27S
$$

KYZ035-036-041-042-044-050-067-078-099-271500
...CENTRAL KENTUCKY...

CITY           SKY/WX    TMP DP  RH WIND       PRES   REMARKS
MT STERLING*   CLOUDY    45  34  65 CALM      30.26R
FLEMING/MASON* CLOUDY    45  32  61 S6        30.25S
DANVILLE*      CLOUDY    45  32  61 CALM      30.25R
RICHMOND*      MOCLDY    48  32  53 S6        30.24S
LEXINGTON      CLOUDY    46  36  68 S7        30.24R
FRANKFORT      LGT RAIN  46  38  73 SE5       30.22S
$$

KYZ091>093-OHZ055-061-077-WVZ005-015-034-035-042-271500
...SOUTHERN OHIO/WEST VIRGINIA...

CITY           SKY/WX    TMP DP  RH WIND       PRES   REMARKS
COVINGTON      CLOUDY    44  35  70 S8        30.21S
COLUMBUS       MOCLDY    43  32  65 CALM      30.21R
DAYTON         LGT RAIN  44  37  76 S13       30.19R
WILMINGTON     CLOUDY    43  34  70 S9        30.20R
HUNTINGTON     CLOUDY    45  32  60 S3        30.27R
CHARLESTON     PTSUNNY   42  35  76 CALM      30.28R
PINEVILLE*     SUNNY     36  36  98 MISG      30.35R
BECKLEY        SUNNY     41  24  51 CALM      30.28R
BLUEFIELD      MOSUNNY   47  18  31 W3        30.29R
$$

VAZ002-007-008-TNZ017-027-036-066-071-271500
...SOUTHWEST VIRGINIA/EAST TENNESSEE...

CITY           SKY/WX    TMP DP  RH WIND       PRES   REMARKS
WISE*          SUNNY     46  21  36 SW7       30.28S
ABINGDON*      SUNNY     42  32  67 CALM      30.30S
BRISTOL        MOSUNNY   38  33  82 CALM      30.29F
KNOXVILLE      CLOUDY    40  37  89 CALM      30.31R
OAK RIDGE      CLOUDY    40  37  89 SW3       30.33R
CROSSVILLE     CLOUDY    50  32  50 S8        30.27R
NASHVILLE      CLOUDY    50  42  74 SE5       30.23S
$$

...KEY TO REMARKS...
VSB - VISIBILITY IN MILES
WCI - WIND CHILL INDEX
HX  - HEAT INDEX

$$


USA.gov is the U.S. government's official web portal to all federal, state and local government web resources and services.